• în România
  • Lista ţărilor
  • Pe 7 zile
  • Temperatura apei
  • Hartă satelitară
  • Meteo pe hartă
  • Widget-uri
  • user-avatar
    Intrare

    Meteo pe oră la Brecon

    Astăzi, 20 Aprilie, Vineri

    Timp Temperatura Precipitaţii Vânt Presiune Umiditate
    00:00 +10°C° 0 mm 2 m/s 752 mmHg 94%
    01:00 +10°C° 0 mm 2 m/s 752 mmHg 94%
    02:00 +9°C° 0 mm 2 m/s 752 mmHg 94%
    03:00 +9°C° 0 mm 2 m/s 752 mmHg 94%
    04:00 +9°C° 0 mm 2 m/s 752 mmHg 94%
    05:00 +9°C° 0 mm 2 m/s 752 mmHg 93%
    06:00 +9°C° 0 mm 1 m/s 752 mmHg 92%
    07:00 +10°C° 0 mm 2 m/s 752 mmHg 86%
    08:00 +13°C° 0 mm 2 m/s 752 mmHg 80%
    09:00 +15°C° 0 mm 2 m/s 752 mmHg 74%
    10:00 +16°C° 0 mm 2 m/s 753 mmHg 71%
    11:00 +17°C° 0 mm 2 m/s 753 mmHg 67%
    12:00 +18°C° 0 mm 2 m/s 753 mmHg 64%
    13:00 +18°C° 0 mm 2 m/s 753 mmHg 64%
    14:00 +18°C° 0 mm 2 m/s 752 mmHg 64%
    15:00 +19°C° 0 mm 2 m/s 752 mmHg 63%
    16:00 +18°C° 0 mm 2 m/s 752 mmHg 68%
    17:00 +17°C° 0 mm 2 m/s 752 mmHg 72%
    18:00 +16°C° 0 mm 2 m/s 752 mmHg 77%
    19:00 +14°C° 0 mm 2 m/s 752 mmHg 78%
    20:00 +13°C° 0 mm 2 m/s 752 mmHg 80%
    21:00 +10°C° 0 mm 2 m/s 752 mmHg 81%
    22:00 +10°C° 0 mm 2 m/s 752 mmHg 83%
    23:00 +9°C° 0 mm 2 m/s 752 mmHg 84%

    Mâine, 21 Aprilie, Sâmbătă

    Timp Temperatura Precipitaţii Vânt Presiune Umiditate
    00:00 +9°C° 0 mm 2 m/s 752 mmHg 86%
    01:00 +9°C° 0 mm 2 m/s 751 mmHg 86%
    02:00 +8°C° 0 mm 2 m/s 751 mmHg 85%
    03:00 +8°C° 0 mm 2 m/s 751 mmHg 85%
    04:00 +8°C° 0 mm 2 m/s 750 mmHg 85%
    05:00 +8°C° 0 mm 2 m/s 750 mmHg 85%
    06:00 +8°C° 0 mm 2 m/s 750 mmHg 85%
    07:00 +10°C° 0 mm 3 m/s 750 mmHg 84%
    08:00 +13°C° 0 mm 3 m/s 750 mmHg 82%
    09:00 +16°C° 0 mm 3 m/s 750 mmHg 81%
    10:00 +17°C° 0 mm 3 m/s 749 mmHg 79%
    11:00 +19°C° 0 mm 3 m/s 749 mmHg 76%
    12:00 +20°C° 0 mm 3 m/s 749 mmHg 74%
    13:00 +20°C° 0,6 mm 4 m/s 748 mmHg 74%
    14:00 +20°C° 0,6 mm 4 m/s 747 mmHg 75%
    15:00 +20°C° 0,6 mm 5 m/s 747 mmHg 75%
    16:00 +19°C° 0,5 mm 4 m/s 746 mmHg 78%
    17:00 +18°C° 0,5 mm 4 m/s 746 mmHg 82%
    18:00 +17°C° 0,5 mm 4 m/s 745 mmHg 85%
    19:00 +16°C° 0,5 mm 3 m/s 745 mmHg 88%
    20:00 +13°C° 0,5 mm 3 m/s 745 mmHg 92%
    21:00 +13°C° 0,5 mm 2 m/s 745 mmHg 95%
    22:00 +13°C° 0,1 mm 2 m/s 744 mmHg 95%
    23:00 +12°C° 0,1 mm 2 m/s 744 mmHg 96%

    Poimâine, 22 Aprilie, Duminică

    Timp Temperatura Precipitaţii Vânt Presiune Umiditate
    00:00 +12°C° 0,1 mm 2 m/s 744 mmHg 96%
    01:00 +12°C° 0 mm 2 m/s 743 mmHg 96%
    02:00 +12°C° 0 mm 2 m/s 743 mmHg 97%
    03:00 +11°C° 0 mm 3 m/s 743 mmHg 97%
    04:00 +12°C° 0 mm 2 m/s 743 mmHg 96%
    05:00 +12°C° 0 mm 2 m/s 743 mmHg 96%
    06:00 +12°C° 0 mm 2 m/s 743 mmHg 95%
    07:00 +11°C° 0 mm 3 m/s 743 mmHg 90%
    08:00 +12°C° 0 mm 3 m/s 743 mmHg 85%
    09:00 +12°C° 0 mm 3 m/s 743 mmHg 80%
    10:00 +13°C° 0 mm 3 m/s 743 mmHg 77%
    11:00 +13°C° 0 mm 4 m/s 743 mmHg 75%
    12:00 +14°C° 0 mm 4 m/s 743 mmHg 73%
    13:00 +14°C° 0 mm 5 m/s 743 mmHg 74%
    14:00 +14°C° 0 mm 5 m/s 743 mmHg 75%
    15:00 +14°C° 0 mm 6 m/s 743 mmHg 76%
    16:00 +13°C° 0 mm 5 m/s 743 mmHg 78%
    17:00 +12°C° 0 mm 5 m/s 743 mmHg 80%
    18:00 +10°C° 0 mm 5 m/s 743 mmHg 82%
    19:00 +10°C° 0 mm 4 m/s 744 mmHg 85%
    20:00 +8°C° 0 mm 4 m/s 744 mmHg 89%
    21:00 +7°C° 0 mm 4 m/s 744 mmHg 93%
    22:00 +7°C° 0 mm 4 m/s 744 mmHg 94%
    23:00 +7°C° 0 mm 4 m/s 745 mmHg 95%

    23 Aprilie, Luni

    Timp Temperatura Precipitaţii Vânt Presiune Umiditate
    00:00 +7°C° 0 mm 4 m/s 745 mmHg 96%
    01:00 +7°C° 0 mm 4 m/s 745 mmHg 95%
    02:00 +7°C° 0 mm 4 m/s 745 mmHg 93%
    03:00 +8°C° 0 mm 3 m/s 745 mmHg 92%
    04:00 +6°C° 0 mm 4 m/s 745 mmHg 92%
    05:00 +5°C° 0 mm 4 m/s 746 mmHg 91%
    06:00 +5°C° 0 mm 4 m/s 746 mmHg 91%
    07:00 +6°C° 0 mm 4 m/s 746 mmHg 86%
    08:00 +8°C° 0 mm 4 m/s 747 mmHg 81%
    09:00 +10°C° 0 mm 4 m/s 747 mmHg 75%
    10:00 +10°C° 0 mm 5 m/s 747 mmHg 74%
    11:00 +12°C° 0 mm 5 m/s 748 mmHg 73%
    12:00 +13°C° 0 mm 6 m/s 748 mmHg 71%
    13:00 +13°C° 0 mm 6 m/s 748 mmHg 72%
    14:00 +13°C° 0 mm 6 m/s 747 mmHg 73%
    15:00 +13°C° 0 mm 6 m/s 747 mmHg 75%
    16:00 +13°C° 0 mm 6 m/s 747 mmHg 79%
    17:00 +11°C° 0 mm 7 m/s 747 mmHg 83%
    18:00 +10°C° 0 mm 7 m/s 746 mmHg 86%
    19:00 +10°C° 0,1 mm 7 m/s 746 mmHg 88%
    20:00 +10°C° 0,1 mm 8 m/s 746 mmHg 90%
    21:00 +10°C° 0,1 mm 8 m/s 746 mmHg 92%
    22:00 +10°C° 0,1 mm 8 m/s 746 mmHg 92%
    23:00 +10°C° 0,1 mm 8 m/s 746 mmHg 93%

    24 Aprilie, Marţi

    Timp Temperatura Precipitaţii Vânt Presiune Umiditate
    00:00 +10°C° 0,1 mm 7 m/s 746 mmHg 93%
    01:00 +10°C° 0,1 mm 7 m/s 746 mmHg 94%
    02:00 +10°C° 0,1 mm 6 m/s 745 mmHg 94%
    03:00 +10°C° 0,1 mm 6 m/s 745 mmHg 95%
    04:00 +10°C° 0,1 mm 6 m/s 745 mmHg 95%
    05:00 +10°C° 0,1 mm 5 m/s 745 mmHg 95%
    06:00 +10°C° 0,1 mm 5 m/s 745 mmHg 95%
    07:00 +10°C° 0,1 mm 5 m/s 745 mmHg 95%
    08:00 +10°C° 0,1 mm 5 m/s 745 mmHg 94%
    09:00 +11°C° 0,1 mm 4 m/s 745 mmHg 94%
    10:00 +10°C° 0,4 mm 5 m/s 745 mmHg 94%
    11:00 +10°C° 0,4 mm 5 m/s 745 mmHg 94%
    12:00 +10°C° 0,4 mm 5 m/s 745 mmHg 95%
    13:00 +11°C° 0,5 mm 4 m/s 745 mmHg 95%
    14:00 +11°C° 0,5 mm 4 m/s 744 mmHg 95%
    15:00 +10°C° 0,5 mm 4 m/s 744 mmHg 95%
    16:00 +10°C° 0,9 mm 4 m/s 744 mmHg 94%
    17:00 +10°C° 0,9 mm 3 m/s 744 mmHg 93%
    18:00 +9°C° 0,9 mm 3 m/s 744 mmHg 93%
    19:00 +8°C° 0 mm 3 m/s 744 mmHg 94%
    20:00 +7°C° 0 mm 3 m/s 744 mmHg 95%
    21:00 +5°C° 0 mm 3 m/s 745 mmHg 95%
    22:00 +5°C° 0 mm 3 m/s 745 mmHg 95%
    23:00 +5°C° 0 mm 3 m/s 745 mmHg 96%

    25 Aprilie, Miercuri

    Timp Temperatura Precipitaţii Vânt Presiune Umiditate
    00:00 +4°C° 0 mm 3 m/s 745 mmHg 96%
    01:00 +5°C° 0 mm 3 m/s 745 mmHg 96%
    02:00 +5°C° 0 mm 4 m/s 745 mmHg 96%
    03:00 +5°C° 0 mm 4 m/s 745 mmHg 95%
    04:00 +6°C° 0 mm 4 m/s 745 mmHg 95%
    05:00 +6°C° 0 mm 5 m/s 745 mmHg 95%
    06:00 +6°C° 0 mm 5 m/s 745 mmHg 94%
    07:00 +7°C° 0 mm 6 m/s 746 mmHg 89%
    08:00 +8°C° 0 mm 7 m/s 746 mmHg 83%
    09:00 +9°C° 0 mm 7 m/s 746 mmHg 78%
    10:00 +9°C° 0,2 mm 8 m/s 746 mmHg 75%
    11:00 +10°C° 0,2 mm 9 m/s 747 mmHg 73%
    12:00 +10°C° 0,2 mm 9 m/s 747 mmHg 70%
    13:00 +10°C° 0,1 mm 9 m/s 747 mmHg 69%
    14:00 +10°C° 0,1 mm 9 m/s 747 mmHg 68%
    15:00 +10°C° 0,1 mm 9 m/s 747 mmHg 66%
    16:00 +9°C° 0 mm 8 m/s 747 mmHg 69%
    17:00 +9°C° 0 mm 7 m/s 747 mmHg 72%
    18:00 +8°C° 0 mm 7 m/s 747 mmHg 75%
    19:00 +7°C° 0 mm 6 m/s 748 mmHg 79%
    20:00 +5°C° 0 mm 6 m/s 748 mmHg 82%
    21:00 +4°C° 0 mm 6 m/s 749 mmHg 85%
    22:00 +4°C° 0 mm 6 m/s 749 mmHg 85%
    23:00 +5°C° 0 mm 6 m/s 749 mmHg 84%
    Arată mai mult